Flag for Norfolk Island Weather past 2 weeks in Kingston, Norfolk Island

Now
66 °F

Passing clouds.


Feels Like: 66 °F
Forecast: 66 / 71 °F
Wind: 10 mph from Southwest

Location: Norfolk Island Airport

Current Time: Apr 29, 2015 at 6:15:57 AM

Latest Report: Apr 29, 2015 at 5:30 AM


Visibility: N/A

Pressure: 30.09 "Hg

Humidity: 64%

Dew point: 54 °F

Location of KingstonLocation

Historic Weather in Kingston — Graph

°F

Kingston temperature yesterday

Maximum temperature yesterday: 72 °F (at 9:30 AM)
Minimum temperature yesterday: 66 °F (at 7:00 PM)
Average temperature yesterday: 69 °F

Past Weeks' High & Low Weather Summary

 TemperatureHumidityPressure
High75 °F (Apr 27, 10:30 AM)100% (Apr 26, 9:30 PM)30.30 "Hg (Apr 26, 9:30 PM)
Low61 °F (Apr 18, 5:30 AM)46% (Apr 16, 11:00 AM)29.77 "Hg (Apr 27, 1:30 AM)
Average69 °F70%30.11 "Hg
* Reported Apr 14 4:30 AM — Apr 29 5:00 AM, Kingston, Weather by CustomWeather, © 2015

Note: Actual official high and low records may vary slightly from our data, if they occured in-between our weather recording intervals... More about our weather records

Advertising

Kingston weather history for previous 24 hours

 ConditionsComfort  
Time TempWeatherWind HumidityBarometerVisibility
5:00 AM
Wed, Apr 29
66 °FClear.8 mph60%30.09 "HgN/A
4:30 AM66 °FPassing clouds.12 mph60%30.09 "HgN/A
4:00 AM66 °FClear.9 mph60%30.09 "HgN/A
3:30 AM66 °FPartly cloudy.10 mph68%30.09 "HgN/A
3:00 AM66 °FPartly cloudy.9 mph64%30.07 "HgN/A
2:30 AM66 °FPassing clouds.8 mph64%30.09 "HgN/A
2:00 AM66 °FPassing clouds.9 mph64%30.09 "HgN/A
1:30 AM66 °FClear.8 mph60%30.09 "HgN/A
1:00 AM64 °FPassing clouds.8 mph68%30.09 "HgN/A
12:30 AM66 °FPassing clouds.8 mph64%30.09 "HgN/A
12:00 AM66 °FClear.8 mph64%30.09 "HgN/A
11:30 PM
Tue, Apr 28
66 °FPassing clouds.8 mph64%30.09 "HgN/A
11:00 PM66 °FPartly cloudy.7 mph64%30.09 "HgN/A
10:30 PM66 °FPassing clouds.6 mph60%30.09 "HgN/A
10:00 PM66 °FClear.9 mph60%30.09 "HgN/A
9:30 PM66 °FClear.8 mph56%30.09 "HgN/A
9:00 PM66 °FClear.9 mph56%30.09 "HgN/A
8:30 PM66 °FClear.10 mph52%30.07 "HgN/A
8:00 PM66 °FClear.10 mph56%30.07 "HgN/A
7:30 PM68 °FClear.10 mph53%30.07 "HgN/A
7:00 PM66 °FClear.10 mph56%30.04 "HgN/A
6:30 PM68 °FClear.10 mph56%30.04 "HgN/A
6:00 PM68 °FPassing clouds.13 mph56%30.04 "HgN/A
5:30 PM68 °FPassing clouds.13 mph60%30.01 "HgN/A
4:30 PM70 °FPartly sunny.10 mph57%30.01 "HgN/A
4:00 PM70 °FScattered clouds.13 mph57%30.01 "HgN/A
3:30 PM72 °FScattered clouds.12 mph53%30.01 "HgN/A
3:00 PM70 °FScattered clouds.15 mph57%30.01 "HgN/A
2:00 PM72 °FScattered clouds.13 mph53%30.01 "HgN/A
1:30 PM72 °FPassing clouds.10 mph61%30.01 "HgN/A
1:00 PM72 °FPassing clouds.14 mph61%30.01 "HgN/A
12:30 PM72 °FPassing clouds.14 mph65%30.01 "HgN/A
12:00 PM72 °FPassing clouds.15 mph65%30.04 "HgN/A
11:30 AM72 °FScattered clouds.14 mph57%30.04 "HgN/A
11:00 AM72 °FScattered clouds.13 mph61%30.04 "HgN/A
10:30 AM72 °FPassing clouds.15 mph57%30.04 "HgN/A
10:00 AM72 °FPassing clouds.13 mph57%30.04 "HgN/A
9:30 AM72 °FPassing clouds.12 mph57%30.04 "HgN/A
8:30 AM70 °FPassing clouds.8 mph57%30.01 "HgN/A
8:00 AM70 °FPassing clouds.9 mph57%30.01 "HgN/A
7:30 AM68 °FScattered clouds.10 mph60%29.98 "HgN/A
7:00 AM68 °FScattered showers. Scattered clouds.10 mph60%29.98 "HgN/A
6:30 AM68 °FPartly sunny.12 mph69%29.95 "HgN/A
6:00 AM68 °FClear.14 mph64%29.95 "HgN/A
Weather by CustomWeather, © 2015

See weather overviewHow to use our weather pages